This demonstration page uses our WeatherBlox Daily Observations layout. Learn more.

Left ArrowRight Arrow

44.89941, -97.11507

Hourly Observations for November 23, 2020

Temp ( °F °C ) Dew Point ( °F °C ) Humidity (%) Winds ( mph kmh ) Pressure ( in mb ) Visibility ( mi km ) Precip ( " mm )
12:53 am 00:53 Clear 22 -5.6 20 -6.7 92 92 Calm 30.31 1026 10 16 0.00 0.00
1:53 am 01:53 Clear 20 -6.7 18 -7.8 92 92 Calm 30.29 1026 8 13 0.00 0.00
2:53 am 02:53 Clear 20 -6.7 19 -7.2 96 96 ESE 3 6 30.28 1025 7 11 0.00 0.00
3:53 am 03:53 Clear 21 -6.1 19 -7.2 92 92 SE 5 7 30.26 1025 9 14 0.00 0.00
4:53 am 04:53 Clear 21 -6.1 19 -7.2 92 92 SE 7 11 30.25 1024 10 16 0.00 0.00
5:53 am 05:53 Clear 21 -6.1 19 -7.2 92 92 SE 7 11 30.25 1024 10 16 0.00 0.00
6:53 am 06:53 Clear 23 -5 19 -7.2 85 85 ESE 7 11 30.24 1024 10 16 0.00 0.00
7:53 am 07:53 Sunny 24 -4.4 20 -6.7 84 84 SE 9 15 30.23 1024 10 16 0.00 0.00
8:53 am 08:53 Sunny 26 -3.3 22 -5.6 84 84 SE 12 19 30.23 1024 10 16 0.00 0.00
9:53 am 09:53 Sunny 31 -0.6 25 -3.9 79 79 SSE 16 26 30.20 1023 10 16 0.00 0.00
10:53 am 10:53 Mostly Cloudy 33 0.6 26 -3.3 75 75 SE 15 24 30.18 1022 10 16 0.00 0.00
11:53 am 11:53 Cloudy 35 1.7 26 -3.3 70 70 SE 17 28 30.15 1021 10 16 0.00 0.00
12:53 pm 12:53 Cloudy 38 3.3 25 -3.9 60 60 SSE 18 30 30.11 1020 10 16 0.00 0.00
1:53 pm 13:53 Mostly Sunny 40 4.4 27 -2.8 60 60 SSE 25 41 30.07 1018 10 16 0.00 0.00
2:53 pm 14:53 Mostly Sunny 39 3.9 28 -2.2 65 65 SE 20 31 30.04 1017 10 16 0.00 0.00
3:50 pm 15:50 Mostly Cloudy 37 3 28 -2 70 70 SE 15 24 30.03 1017 10 16 0.00 0.00
3:53 pm 15:53 Mostly Cloudy 37 2.8 29 -1.7 73 73 SE 17 28 30.04 1017 10 16 0.00 0.00
4:53 pm 16:53 Cloudy 36 2.2 30 -1.1 79 79 SSE 21 33 30.02 1017 10 16 0.00 0.00
5:18 pm 17:18 Cloudy 35 1.7 30 -1.1 82 82 SSE 18 30 30.02 1016 10 16 0.00 0.00
5:53 pm 17:53 Cloudy 35 1.7 32 0 89 89 SSE 21 33 30.02 1017 10 16 0.00 0.00
6:53 pm 18:53 Cloudy with Mist and Fog 34 1.1 33 0.6 97 97 SSE 22 35 30.00 1016 5 8 0.00 0.00
7:53 pm 19:53 Cloudy 34 1.1 33 0.6 97 97 SSE 21 33 29.98 1015 10 16 0.00 0.00
8:53 pm 20:53 Cloudy 34 1.1 32 0 92 92 SSE 17 28 29.97 1015 10 16 0.00 0.00
9:07 pm 21:07 Cloudy 35 1.7 32 0 89 89 SSE 18 30 29.98 1015 10 16 0.00 0.00
9:53 pm 21:53 Cloudy 35 1.7 32 0 89 89 SSE 21 33 29.95 1014 10 16 0.00 0.00
10:53 pm 22:53 Cloudy 35 1.7 32 0 89 89 SSE 20 31 29.94 1014 10 16 0.00 0.00
11:19 pm 23:19 Cloudy 35 1.7 32 0 89 89 SSE 22 35 29.95 1014 10 16 0.00 0.00
11:53 pm 23:53 Cloudy 35 1.7 32 0 89 89 S 18 30 29.93 1014 10 16 0.00 0.00

Powered by AerisWeather